sat.trackr.live / text

‹ back to catalog

STARLINK-34763

NORAD 65206 · 2025-176J

PAYLOAD ACTIVE UNKNOWN

§ Identity

Operator
Country
US
Launch date
2025-08-14
Launch site
AFETR
Launch vehicle
Mass (kg)
RCS (m²)

Purposes: comms

External: N2YO · Heavens-Above · Gunter

§ Orbital elements

Epoch: 2026-05-24T18:01:58.206432Z

Period
93.85 min
Inclination
53.1603°
Eccentricity
0.0001416
Mean motion
15.34403373 rev/d
Perigee alt
461.7 km
Apogee alt
463.7 km
Semi-major
6,840.8 km
B*
3.3574e-4
RAAN
158.8737°
Arg perigee
92.6107°
Mean anomaly
267.5058°
Rev number
4,476

§ Raw data

STARLINK-347631 65206U 25176J   26144.75136813  .00010985  00000+0  33574-3 0  99982 65206  53.1603 158.8737 0001416  92.6107 267.5058 15.34403373 44762

JSON: /api/v1/satellites/65206 · /tle

For live sub-satellite position, see the globe view (requires WebGL).

§ Visibility from observer

Set your observer location to see the next 7 days of passes ≥ 10°. The values pass through the URL so the page stays shareable.

No JS? Fill the form by hand. The geolocation button needs JavaScript.